Flag for U.S.A. Weather past 2 weeks in Newark, New Jersey, U.S.A.

Now
47 °F

Scattered clouds.


Feels Like: 45 °F
Forecast: 42 / 65 °F
Wind: 5 mph from South

Location: Newark International Airport


UV Index: 5 (Moderate)

Visibility: 10 mi


Pressure: 30.40 "Hg

Humidity: 46%

Dew point: 27 °F

Location of NewarkLocation

Historic Weather in Newark

°F

Newark temperature yesterday

Maximum temperature yesterday: 68 °F (at 3:51 PM)
Minimum temperature yesterday: 39 °F (at 3:51 AM)
Average temperature yesterday: 54 °F

Past Weeks' High & Low Weather Summary

 TemperatureHumidityPressure
High83 °F (Apr 13, 2:51 PM)100% (Apr 7, 10:51 PM)30.73 "Hg (Apr 7, 10:51 PM)
Low31 °F (Apr 16, 5:51 AM)16% (Apr 19, 3:51 PM)29.40 "Hg (Apr 8, 12:51 PM)
Average53 °F54%30.10 "Hg
* Reported Apr 5 6:51 PM — Apr 20 6:51 PM, Newark, Weather by CustomWeather, © 2014

Note: Actual official high and low records may vary slightly from our data, if they occured in-between our weather recording intervals... More about our weather records

Advertising

Historic Weather Conditions — Data for Previous 24 hours

 ConditionsComfort  
Time TempWeatherWind HumidityBarometerVisibility
6:51 PM
Apr 20
49 °FScattered clouds.5 mph41%30.40 "Hg10 mi
5:51 PM50 °FScattered clouds.10 mph39%30.42 "Hg10 mi
4:51 PM50 °FScattered clouds.9 mph39%30.43 "Hg10 mi
3:51 PM52 °FScattered clouds.13 mph37%30.44 "Hg10 mi
2:51 PM52 °FScattered clouds.13 mph35%30.46 "Hg10 mi
1:51 PM52 °FPartly sunny.10 mph32%30.47 "Hg10 mi
12:51 PM53 °FPartly sunny.10 mph34%30.48 "Hg10 mi
11:51 AM53 °FPartly sunny.15 mph34%30.48 "Hg10 mi
10:51 AM53 °FPartly sunny.8 mph35%30.49 "Hg10 mi
9:51 AM51 °FPartly sunny.9 mph35%30.49 "Hg10 mi
8:51 AM50 °FPartly sunny.8 mph41%30.48 "Hg10 mi
7:51 AM48 °FPartly sunny.12 mph43%30.47 "Hg10 mi
6:51 AM48 °FPassing clouds.14 mph50%30.46 "Hg10 mi
5:51 AM48 °FPassing clouds.8 mph59%30.43 "Hg10 mi
4:51 AM49 °FPassing clouds.7 mph57%30.42 "Hg10 mi
3:51 AM51 °FPassing clouds.12 mph48%30.40 "Hg10 mi
2:51 AM50 °FPassing clouds.13 mph41%30.38 "Hg10 mi
1:51 AM50 °FPassing clouds.12 mph43%30.37 "Hg10 mi
12:51 AM52 °FPassing clouds.14 mph38%30.35 "Hg10 mi
11:51 PM
Apr 19
53 °FPassing clouds.12 mph34%30.34 "Hg10 mi
10:51 PM55 °FPassing clouds.14 mph29%30.34 "Hg10 mi
9:51 PM58 °FPassing clouds.14 mph28%30.32 "Hg10 mi
8:51 PM60 °FPassing clouds.5 mph27%30.29 "Hg10 mi
Weather by CustomWeather, © 2014

See weather overview